[[{"header":{"parameterUnit":"m.s-1","parameterCategory":1,"la1":30.2991,"la2":30.254,"lo1":-89.0895,"lo2":-89.0444,"dy":0.0017,"dx":0.0017,"nx":28,"ny":28,"refTime":"2024-10-05T09:00:00:Z","depth":0,"parameterNumber":2,"parameterNumberName":"U-component_of_WINDS"},"data":[0,0,0,0,0,0,0,0,0,0,0,0,0,0,0,0,0,0,0,0,0,0,0,0,0,0,0,0,0,0,0,0,0,0,0,0,0,0,0,0,0,0,0,0,0,0,0,0,0,0,0,0,0,0,0,0,0,0,-4.6677,-4.6678,0,-4.6745,-4.6746,-4.6747,-4.6659,-4.6656,-4.6652,-4.6649,-4.6722,-4.6726,-4.6731,0,0,0,0,0,0,0,0,0,0,0,0,0,-4.6473,-4.6477,-4.6677,-4.6678,-4.6679,-4.6745,-4.6746,-4.6747,-4.6659,-4.6656,-4.6652,-4.6648,-4.672,-4.6726,-4.6732,0,0,0,0,0,0,0,0,0,0,0,0,0,-4.6553,-4.6478,-4.6677,-4.6643,-4.6641,-4.6745,-4.6746,-4.6747,-4.666,-4.6655,-4.6651,-4.6646,-4.6718,-4.6725,-4.6733,-4.6874,0,0,-4.6755,-4.6758,0,0,0,0,0,0,0,0,-4.6549,-4.6561,-4.6647,-4.6646,-4.6643,-4.6689,-4.67,-4.679,-4.6661,-4.6653,-4.6649,-4.6644,-4.6715,-4.6722,-4.6745,-4.6878,-4.6881,-4.6756,-4.676,-4.6763,-4.6765,0,0,0,0,0,0,0,-4.6543,-4.6558,-4.6704,-4.6649,-4.6646,-4.6625,-4.6631,-4.6717,-4.671,-4.6653,-4.6647,-4.6656,-4.6713,-4.6739,-4.6747,-4.6882,-4.6756,-4.6762,-4.6767,-4.6769,-4.7135,-4.714,0,0,0,0,0,0,-4.6542,-4.6553,-4.6702,-4.6706,-4.6583,-4.6633,-4.6639,-4.6679,-4.6709,-4.6709,-4.666,-4.6652,-4.6728,-4.6738,-4.6749,-4.6918,-4.6763,-4.677,-4.6774,-4.7129,-4.7136,-4.7142,0,0,0,0,0,0,-4.6538,-4.6556,-4.6699,-4.6628,-4.6645,-4.6641,-4.6686,-4.6683,-4.6709,-4.6714,-4.6713,-4.6688,-4.6725,-4.6738,-4.6844,-4.6919,-4.6774,-4.678,-4.7123,-4.7131,-4.7139,-4.7256,0,0,0,0,0,0,-4.6532,-4.6555,-4.6608,-4.663,-4.6649,-4.6793,-4.6691,-4.6688,-4.6721,-4.6711,-4.674,-4.674,-4.6722,-4.6833,-4.6851,-4.6926,-4.6786,-4.7117,-4.7127,-4.7136,-4.7245,-4.7267,-4.7285,0,0,0,0,0,-4.6525,-4.6639,-4.6611,-4.663,-4.6716,-4.6797,-4.6808,-4.6785,-4.6728,-4.6782,-4.6785,-4.6739,-4.6907,-4.6845,-4.6864,-4.6943,-4.7112,-4.7124,-4.7135,-4.7237,-4.7263,-4.7285,0,0,0,0,0,0,-4.6627,-4.6641,-4.6611,-4.6735,-4.6766,-4.6782,-4.685,-4.6814,-4.6862,-4.685,-4.682,-4.6827,-4.694,-4.6951,-4.6881,-4.7082,-4.7,-4.7017,-4.707,-4.7095,-4.7115,-4.711,-4.6792,0,0,0,0,0,-4.6663,-4.6728,-4.6737,-4.6846,-4.6863,-4.6854,-4.6889,-4.6868,-4.6899,-4.6912,-4.6923,-4.6955,-4.7015,-4.7056,-4.7111,-4.7246,-4.7252,-4.731,-4.733,-4.7346,-4.7361,-4.7434,-4.7461,-4.7181,-4.718,-4.718,0,0,-4.674,-4.6756,-4.6799,-4.6867,-4.6888,-4.6957,-4.6866,-4.6941,-4.6992,-4.6923,-4.7024,-4.7033,-4.7067,-4.7188,-4.7242,-4.7202,-4.7439,-4.7361,-4.7374,-4.738,-4.7449,-4.7476,-4.7499,-4.7189,-4.7187,-4.7186,0,0,-4.6916,-4.6934,-4.7026,-4.7049,-4.7083,-4.7076,-4.7098,-4.7121,-4.7124,-4.7224,-4.7174,-4.7234,-4.7338,-4.7365,-4.7392,-4.7577,-4.7537,-4.7596,-4.7701,-4.7773,-4.7795,-4.7814,-4.7882,-4.7906,-4.7611,-4.7611,-4.7611,0,-4.7007,-4.7108,-4.7079,-4.7159,-4.7191,-4.713,-4.7225,-4.7248,-4.7299,-4.7322,-4.7276,-4.7405,-4.7424,-4.7551,-4.7596,-4.762,-4.7645,-4.7593,-4.7794,-4.7813,-4.7831,-4.7895,-4.792,-4.7618,-4.7617,-4.7616,-4.7616,0,-4.7219,-4.729,-4.7361,-4.741,-4.7449,-4.7536,-4.7522,-4.7565,-4.7541,-4.7539,-4.7643,-4.7663,-4.7722,-4.775,-4.7727,-4.7874,-4.7848,-4.7798,-4.7716,-4.7865,-4.7925,-4.7949,-4.7628,-4.7626,-4.7624,-4.7622,0,0,-4.7462,-4.7493,-4.752,-4.7542,-4.7574,-4.7628,-4.7712,-4.7769,-4.7808,-4.7844,-4.7915,-4.8004,-4.7958,-4.7989,-4.7969,-4.8032,-4.8179,-4.7974,-4.7975,-4.8013,-4.8344,-4.8382,-4.8411,-4.8152,-4.8156,-4.816,-4.8341,0,-4.7638,-4.7783,-4.7759,-4.79,-4.7966,-4.7909,-4.7982,-4.8011,-4.8011,-4.8067,-4.8068,-4.8133,-4.8066,-4.8085,-4.8144,-4.8149,-4.8245,-4.8135,-4.8219,-4.8222,-4.8214,-4.8442,-4.8483,-4.8653,-4.8364,-4.8368,-4.8371,0,-4.7863,-4.7907,-4.8055,-4.8076,-4.8103,-4.8169,-4.822,-4.8274,-4.8305,-4.8301,-4.8336,-4.8304,-4.8389,-4.8304,-4.8421,-4.8347,-4.838,-4.8387,-4.8393,-4.8401,-4.8307,-4.8458,-4.8707,-4.8733,-4.8407,-4.8404,-4.8402,0,-4.8027,-4.8123,-4.8224,-4.8244,-4.8272,-4.832,-4.8334,-4.836,-4.8396,-4.844,-4.8463,-4.8517,-4.8547,-4.859,-4.8574,-4.8514,-4.8696,-4.8609,-4.8696,-4.8697,-4.8739,-4.8737,-4.8998,-4.8757,-4.8757,-4.8756,-4.8756,0,-4.8227,-4.832,-4.8298,-4.836,-4.8462,-4.8434,-4.8537,-4.8544,-4.8568,-4.8631,-4.8585,-4.8645,-4.862,-4.8679,-4.8667,-4.8767,-4.8781,-4.8781,-4.8777,-4.8786,-4.8787,-4.8808,-4.8797,-4.8763,-4.8762,-4.876,-4.8759,0,-4.8428,-4.8417,-4.8523,-4.854,-4.8547,-4.8622,-4.8637,-4.8696,-4.8692,-4.8773,-4.879,-4.8786,-4.8853,-4.8841,-4.8916,-4.8908,-4.9033,-4.9014,-4.9023,-4.9019,-4.9108,-4.91,-4.9393,-4.9431,-4.9165,-4.9167,-4.917,0,-4.8557,-4.8627,-4.8652,-4.869,-4.8708,-4.8771,-4.8807,-4.8782,-4.8822,-4.8862,-4.8917,-4.898,-4.9029,-4.9139,-4.9144,-4.9201,-4.9183,-4.9282,-4.9192,-4.9199,-4.9187,-4.9184,-4.9191,-4.9301,-4.9304,-4.9306,-4.9308,0,-4.8788,-4.8779,-4.8833,-4.8885,-4.8929,-4.8969,-4.9005,-4.9039,-4.9018,-4.9065,-4.9133,-4.9171,-4.9246,-4.931,-4.9363,-4.9378,-4.9341,-4.9336,-4.936,-4.9371,-4.9374,-4.9375,-4.9074,-4.933,-4.9328,-4.9326,-4.9325,-4.9324,-4.8958,-4.9018,-4.9045,-4.9106,-4.913,-4.9165,-4.9221,-4.9224,-4.928,-4.934,-4.9321,-4.9399,-4.9429,-4.9496,-4.9517,-4.9578,-4.9542,-4.9575,-4.9584,-4.9593,-4.9605,-4.9363,-4.9588,-4.9587,-4.9586,-4.9586,-4.9585,0,-4.9188,-4.9203,-4.9259,-4.931,-4.9359,-4.9317,-4.9354,-4.9398,-4.9467,-4.9497,-4.9546,-4.9625,-4.9686,-4.9695,-4.9754,-4.9801,-4.9785,-4.9817,-4.9815,-4.9819,-4.9633,-4.9608,-4.9829,-4.9829,-4.9829,-4.9829,-4.9829,-4.9829,-4.9314,-4.9413,-4.9407,-4.9518,-4.9532,-4.9607,-4.9632,-4.9664,-4.9688,-4.9777,-4.9828,-4.9833,-4.9855,-4.9915,-4.997,-4.9971,-4.9995,-5.0035,-5.003,-4.9856,-4.9832,-4.9809,-4.9785,-5.004,-5.004,-5.021,-5.0212,-5.0213]},{"header":{"parameterUnit":"m.s-1","parameterCategory":1,"la1":30.2991,"la2":30.254,"lo1":-89.0895,"lo2":-89.0444,"dy":0.0017,"dx":0.0017,"nx":28,"ny":28,"refTime":"2024-10-05T09:00:00:Z","depth":0,"parameterNumber":3,"parameterNumberName":"V-component_of_WINDS"},"data":[0,0,0,0,0,0,0,0,0,0,0,0,0,0,0,0,0,0,0,0,0,0,0,0,0,0,0,0,0,0,0,0,0,0,0,0,0,0,0,0,0,0,0,0,0,0,0,0,0,0,0,0,0,0,0,0,0,0,-2.6907,-2.6906,0,-2.6869,-2.6868,-2.6868,-2.6812,-2.6811,-2.681,-2.6809,-2.6771,-2.6771,-2.6771,0,0,0,0,0,0,0,0,0,0,0,0,0,-2.6932,-2.6932,-2.6907,-2.6906,-2.6906,-2.6869,-2.6868,-2.6868,-2.6812,-2.6811,-2.681,-2.6808,-2.6771,-2.6771,-2.6771,0,0,0,0,0,0,0,0,0,0,0,0,0,-2.6911,-2.6932,-2.6907,-2.6874,-2.687,-2.6869,-2.6868,-2.6867,-2.6812,-2.6811,-2.6809,-2.6808,-2.6771,-2.6771,-2.6771,-2.6799,0,0,-2.677,-2.677,0,0,0,0,0,0,0,0,-2.6912,-2.691,-2.6879,-2.6876,-2.6872,-2.6843,-2.6863,-2.6845,-2.6813,-2.6834,-2.6809,-2.6807,-2.6796,-2.6794,-2.679,-2.6797,-2.6796,-2.677,-2.677,-2.677,-2.677,0,0,0,0,0,0,0,-2.6913,-2.6911,-2.6892,-2.6879,-2.6874,-2.6861,-2.6856,-2.6859,-2.6824,-2.6832,-2.6828,-2.6824,-2.6794,-2.679,-2.6789,-2.6795,-2.677,-2.677,-2.677,-2.677,-2.6823,-2.6825,0,0,0,0,0,0,-2.692,-2.6913,-2.6893,-2.6891,-2.6889,-2.6861,-2.6856,-2.6854,-2.6824,-2.6818,-2.6826,-2.6822,-2.6791,-2.6789,-2.6787,-2.6818,-2.677,-2.677,-2.677,-2.6822,-2.6823,-2.6825,0,0,0,0,0,0,-2.692,-2.6919,-2.6895,-2.69,-2.6896,-2.6863,-2.6861,-2.6854,-2.685,-2.6819,-2.6812,-2.6828,-2.679,-2.6787,-2.6796,-2.6816,-2.677,-2.677,-2.682,-2.6822,-2.6824,-2.688,0,0,0,0,0,0,-2.6921,-2.6919,-2.693,-2.6901,-2.6896,-2.6904,-2.6862,-2.6854,-2.685,-2.6845,-2.6819,-2.6814,-2.6789,-2.6797,-2.6796,-2.6815,-2.677,-2.6818,-2.6821,-2.6824,-2.6877,-2.6884,-2.6891,0,0,0,0,0,-2.6923,-2.6947,-2.693,-2.6928,-2.6908,-2.6906,-2.6903,-2.6873,-2.6852,-2.6862,-2.6842,-2.6815,-2.6814,-2.6798,-2.6797,-2.6816,-2.6817,-2.682,-2.6823,-2.6874,-2.6883,-2.6891,0,0,0,0,0,0,-2.6979,-2.6943,-2.6924,-2.694,-2.6926,-2.6896,-2.6908,-2.6884,-2.6876,-2.6872,-2.6835,-2.683,-2.6844,-2.6831,-2.6814,-2.6842,-2.6811,-2.6814,-2.685,-2.6858,-2.6865,-2.6868,-2.6769,0,0,0,0,0,-2.6994,-2.6994,-2.6962,-2.698,-2.6974,-2.6942,-2.694,-2.6918,-2.6903,-2.6897,-2.6877,-2.6863,-2.686,-2.6858,-2.6853,-2.6874,-2.6868,-2.6887,-2.6894,-2.69,-2.6903,-2.6913,-2.6921,-2.6836,-2.6836,-2.6836,0,0,-2.7024,-2.7004,-2.7006,-2.6991,-2.6977,-2.6979,-2.6938,-2.6941,-2.6942,-2.6897,-2.6904,-2.6889,-2.6872,-2.6887,-2.6892,-2.6876,-2.6925,-2.6904,-2.6909,-2.6909,-2.6917,-2.6925,-2.6933,-2.6839,-2.6838,-2.6838,0,0,-2.7079,-2.7064,-2.7076,-2.7064,-2.7044,-2.7023,-2.7026,-2.6999,-2.6987,-2.6994,-2.696,-2.696,-2.6955,-2.6944,-2.6937,-2.6987,-2.6962,-2.6987,-2.7024,-2.7034,-2.7041,-2.7046,-2.7064,-2.7071,-2.699,-2.699,-2.699,0,-2.7118,-2.7119,-2.7086,-2.7091,-2.7085,-2.7044,-2.7057,-2.7046,-2.7026,-2.7023,-2.7005,-2.6997,-2.6983,-2.6994,-2.7006,-2.7002,-2.7005,-2.699,-2.7042,-2.7048,-2.7052,-2.7069,-2.7076,-2.6993,-2.6993,-2.6993,-2.6993,0,-2.7168,-2.7169,-2.7182,-2.7163,-2.7158,-2.7167,-2.7136,-2.7135,-2.7113,-2.7094,-2.7101,-2.7082,-2.7072,-2.7073,-2.7052,-2.7081,-2.7072,-2.7049,-2.7017,-2.7064,-2.7079,-2.7085,-2.6998,-2.6997,-2.6996,-2.6995,0,0,-2.7258,-2.7221,-2.7226,-2.7216,-2.7191,-2.7192,-2.7199,-2.7188,-2.7188,-2.7176,-2.7181,-2.7177,-2.7155,-2.7148,-2.7125,-2.7134,-2.7175,-2.711,-2.7109,-2.7122,-2.7205,-2.7223,-2.7231,-2.7157,-2.7159,-2.7159,-2.7207,0,-2.7308,-2.7318,-2.7288,-2.7305,-2.7305,-2.7266,-2.7272,-2.7258,-2.724,-2.7237,-2.7217,-2.7215,-2.7187,-2.7182,-2.7189,-2.7168,-2.7191,-2.7164,-2.7162,-2.7162,-2.7167,-2.7238,-2.7257,-2.7303,-2.7212,-2.7213,-2.7214,0,-2.7368,-2.7358,-2.7375,-2.7348,-2.7347,-2.7353,-2.7341,-2.7339,-2.7322,-2.7308,-2.73,-2.7274,-2.7278,-2.7248,-2.7254,-2.7237,-2.7234,-2.7224,-2.7225,-2.7224,-2.7191,-2.7239,-2.7316,-2.7323,-2.7223,-2.7222,-2.7221,0,-2.7431,-2.7422,-2.7431,-2.7424,-2.7394,-2.7399,-2.7386,-2.7367,-2.7363,-2.7353,-2.7349,-2.734,-2.7335,-2.7328,-2.73,-2.7281,-2.731,-2.7277,-2.7298,-2.7299,-2.7306,-2.7306,-2.7385,-2.7305,-2.7305,-2.7305,-2.7304,0,-2.749,-2.7502,-2.7459,-2.7465,-2.7477,-2.7442,-2.7455,-2.7439,-2.7422,-2.7424,-2.739,-2.7392,-2.7355,-2.7353,-2.7331,-2.7339,-2.7337,-2.7326,-2.732,-2.7329,-2.7331,-2.7327,-2.7323,-2.7306,-2.7306,-2.7306,-2.7305,0,-2.7563,-2.7535,-2.7542,-2.7512,-2.7505,-2.7515,-2.749,-2.7494,-2.7473,-2.7476,-2.7474,-2.7443,-2.7439,-2.741,-2.7399,-2.7384,-2.7401,-2.7389,-2.7407,-2.7403,-2.7426,-2.7424,-2.7504,-2.7513,-2.7428,-2.7429,-2.7429,0,-2.7602,-2.761,-2.7582,-2.758,-2.7569,-2.7567,-2.7562,-2.7529,-2.7526,-2.7506,-2.7512,-2.7505,-2.7498,-2.7493,-2.7469,-2.7461,-2.7448,-2.7477,-2.7447,-2.7456,-2.7449,-2.7449,-2.7449,-2.7484,-2.7485,-2.7486,-2.7486,0,-2.7675,-2.766,-2.7655,-2.7644,-2.764,-2.763,-2.7618,-2.7619,-2.7582,-2.758,-2.7575,-2.7569,-2.7558,-2.7552,-2.7539,-2.7526,-2.75,-2.7496,-2.75,-2.751,-2.752,-2.7515,-2.7424,-2.7494,-2.7494,-2.7493,-2.7493,-2.7492,-2.7732,-2.7737,-2.7718,-2.7713,-2.77,-2.769,-2.7692,-2.7671,-2.7667,-2.7655,-2.7636,-2.7634,-2.7615,-2.7596,-2.7585,-2.7583,-2.7568,-2.7574,-2.7576,-2.7578,-2.7583,-2.752,-2.7581,-2.758,-2.758,-2.758,-2.758,0,-2.7803,-2.7788,-2.7784,-2.7768,-2.7764,-2.7739,-2.7725,-2.7723,-2.7722,-2.7707,-2.77,-2.7695,-2.7688,-2.7663,-2.7654,-2.7657,-2.7645,-2.7656,-2.7655,-2.7653,-2.7597,-2.7594,-2.7666,-2.7666,-2.7666,-2.7666,-2.7666,-2.7666,-2.7839,-2.7846,-2.783,-2.7831,-2.7816,-2.7813,-2.7807,-2.7797,-2.7785,-2.778,-2.7775,-2.7759,-2.774,-2.7729,-2.7722,-2.7715,-2.7713,-2.7728,-2.7717,-2.7665,-2.7657,-2.7649,-2.7646,-2.7728,-2.7728,-2.7773,-2.7773,-2.7773]}]]